GW3608 Weather Reports


Display with metric or nautical units.
time (UTC)temp
F
wind
direction
speed
MPH
gust
MPH
rain 1hr
in
rain 24hr
in
rain mn
in
humidity
%
barometer
mb
20260902193016 69 142 0.0 3.0 0.06 0.41 0.41 96 1018.8
20260902191536 68 44 0.0 2.0 0.05 0.39 0.39 96 1018.9
20260902190005 68 38 0.0 2.0 0.06 0.38 0.38 96 1018.8
20260902184516 68 5 0.0 2.0 0.06 0.37 0.37 96 1018.7
20260902183015 68 26 0.0 3.0 0.06 0.35 0.35 96 1018.8
20260902181516 68 94 0.0 1.0 0.07 0.34 0.34 96 1018.9
20260902180030 67 142 0.0 2.0 0.06 0.33 0.32 96 1019.4
20260902174507 67 53 0.0 3.0 0.07 0.34 0.31 96 1019.6
20260902173008 67 147 0.0 5.0 0.07 0.34 0.29 96 1019.9
20260902171515 67 160 0.0 2.0 0.07 0.35 0.27 96 1019.9
20260902170024 67 165 0.0 3.0 0.08 0.37 0.26 96 1020.1
20260902164527 67 100 0.0 3.0 0.09 0.38 0.24 96 1020.1
20260902163005 68 273 1.0 4.0 0.09 0.41 0.22 96 1020.1
20260902161515 68 44 0.0 2.0 0.10 0.43 0.20 96 1020.1
20260902160015 68 234 0.0 2.0 0.10 0.47 0.18 96 1019.5
20260902154527 68 137 0.0 2.0 0.10 0.50 0.15 96 1019.6
20260902153027 69 186 0.0 3.0 0.11 0.54 0.13 96 1019.9
20260902151511 69 217 0.0 1.0 0.10 0.57 0.10 96 1019.6
20260902150017 69 193 0.0 4.0 0.08 0.61 0.08 96 1019.9
20260902144527 69 163 0.0 5.0 0.05 0.65 0.05 96 1019.5
20260902143025 69 145 0.0 3.0 0.02 0.70 0.02 96 1019.5
20260902141531 69 175 0.0 0.0 0.00 0.76 0.00 96 1019.5
20260902140014 70 168 0.0 0.0 0.00 0.84 0.00 96 1019.7
20260902134518 70 218 0.0 0.0 0.00 0.93 0.00 96 1020.0
20260902133025 69 196 0.0 0.0 0.00 1.01 0.00 96 1019.6
20260902131526 69 171 0.0 0.0 0.00 1.09 0.00 96 1019.6
20260902130033 70 150 0.0 0.0 0.00 1.16 0.00 96 1019.4
20260902124514 70 142 0.0 0.0 0.00 1.26 0.00 96 1019.4
20260902123024 69 219 0.0 0.0 0.00 1.35 0.00 97 1019.4
20260902121524 69 152 0.0 0.0 0.00 1.40 0.00 97 1019.2
20260902120030 69 232 0.0 0.0 0.00 1.41 0.00 97 1018.9
20260902114532 69 184 0.0 0.0 0.00 1.42 0.00 97 1018.9
20260902113018 69 192 0.0 0.0 0.00 1.42 0.00 97 1018.7
20260902111534 69 184 0.0 0.0 0.00 1.43 0.00 96 1018.7
20260902110013 69 138 0.0 0.0 0.00 1.43 0.00 97 1018.6
20260902104508 68 211 0.0 0.0 0.00 1.44 0.00 96 1018.8
20260902103016 68 211 0.0 0.0 0.00 1.46 0.00 96 1018.8
20260902101522 68 284 0.0 0.0 0.00 1.46 0.00 96 1018.9
20260902100004 68 209 0.0 0.0 0.00 1.46 0.00 96 1018.8
20260902094509 69 148 0.0 0.0 0.00 1.46 0.00 96 1018.8
20260902093012 69 208 0.0 0.0 0.00 1.46 0.00 96 1018.9
20260902091518 69 213 0.0 0.0 0.00 1.46 0.00 96 1018.8
20260902090025 69 213 0.0 0.0 0.00 1.46 0.00 96 1018.8
20260902084503 69 213 0.0 0.0 0.00 1.46 0.00 96 1019.0
20260902083008 68 144 0.0 0.0 0.00 1.46 0.00 96 1018.8
20260902081516 68 132 0.0 0.0 0.00 1.47 0.00 96 1018.5
20260902080021 68 142 0.0 0.0 0.00 1.47 0.00 96 1018.5
20260902074525 69 352 0.0 0.0 0.00 1.48 0.00 96 1018.6
20260902073006 69 128 0.0 0.0 0.00 1.48 0.00 96 1018.6
20260902071516 69 128 0.0 0.0 0.00 1.48 0.00 96 1018.5
20260902070016 69 128 0.0 0.0 0.00 1.48 0.00 96 1018.5
20260902064528 69 128 0.0 0.0 0.00 1.48 0.00 96 1018.7
20260902063038 69 128 0.0 0.0 0.00 1.48 0.00 96 1018.7
20260902061508 69 137 0.0 0.0 0.00 1.48 0.00 96 1018.8
20260902060012 69 137 0.0 0.0 0.00 1.48 0.00 96 1018.9
20260902054529 69 137 0.0 0.0 0.00 1.48 0.00 96 1018.7
20260902053027 69 137 0.0 0.0 0.00 1.48 0.00 96 1018.7
20260902051529 69 137 0.0 0.0 0.00 1.48 0.00 96 1018.7
20260902050038 70 137 0.0 0.0 0.00 1.48 0.00 96 1018.6
20260902044516 69 360 0.0 0.0 0.00 1.48 0.00 96 1018.6
20260902043032 69 360 0.0 0.0 0.00 1.48 0.00 96 1018.4
20260902041529 69 360 0.0 0.0 0.00 1.48 0.00 96 1018.2
20260902040035 69 360 0.0 0.0 0.00 1.48 0.00 96 1018.2
20260902034521 69 360 0.0 0.0 0.00 1.48 1.48 95 1018.1
20260902033020 69 360 0.0 0.0 0.00 1.48 1.48 95 1018.0
20260902031527 69 360 0.0 0.0 0.00 1.48 1.48 95 1018.0
20260902030027 69 360 0.0 0.0 0.00 1.48 1.48 95 1017.9
20260902024531 69 360 0.0 0.0 0.00 1.48 1.48 95 1017.8
20260902023016 69 360 0.0 0.0 0.00 1.48 1.48 95 1017.8
20260902021524 70 360 0.0 0.0 0.00 1.48 1.48 95 1017.9
20260902020005 70 360 0.0 0.0 0.00 1.48 1.48 95 1017.9
20260902014509 70 360 0.0 0.0 0.00 1.48 1.48 95 1017.9
20260902013014 70 360 0.0 0.0 0.00 1.48 1.48 94 1017.6
20260902011513 70 360 0.0 0.0 0.00 1.48 1.48 94 1017.5
20260902010009 71 360 0.0 0.0 0.00 1.50 1.48 94 1017.2
20260902004504 71 360 0.0 0.0 0.00 1.51 1.48 93 1017.2
20260902003021 71 360 0.0 0.0 0.00 1.51 1.48 93 1016.9
20260902001516 72 360 0.0 0.0 0.00 1.52 1.48 93 1016.5
20260902000014 72 360 0.0 0.0 0.00 1.53 1.48 93 1016.5
20260901234506 73 360 0.0 0.0 0.00 1.53 1.48 92 1016.5
20260901233008 73 360 0.0 0.0 0.00 1.53 1.48 92 1016.6
20260901231522 74 360 0.0 0.0 0.00 1.53 1.48 91 1016.3
20260901230016 75 360 0.0 0.0 0.00 1.53 1.48 90 1016.3
20260901224525 75 360 0.0 0.0 0.00 1.53 1.48 89 1016.3
20260901223007 76 360 0.0 0.0 0.00 1.53 1.48 87 1016.1
20260901221512 77 352 0.0 0.0 0.00 1.54 1.48 85 1016.1
20260901220023 78 345 0.0 0.0 0.00 1.55 1.48 84 1016.3
20260901214518 77 310 0.0 0.0 0.00 1.55 1.48 84 1016.2
20260901213039 77 360 0.0 0.0 0.00 1.56 1.48 85 1016.1
20260901211510 78 352 0.0 0.0 0.00 1.56 1.48 83 1015.9
20260901210015 78 352 0.0 0.0 0.00 1.56 1.48 86 1015.8
20260901204532 77 24 0.0 0.0 0.00 1.57 1.48 89 1016.1
20260901203033 76 5 0.0 0.0 0.00 1.58 1.48 89 1016.1
20260901201523 76 23 0.0 0.0 0.00 1.58 1.48 91 1016.3
20260901200012 75 322 0.0 0.0 0.00 1.58 1.48 91 1016.4
20260901194518 76 321 0.0 0.0 0.00 1.63 1.48 90 1016.2